Time,TemperatureF,DewpointF,PressureIn,WindDirection,WindDirectionDegrees,WindSpeedMPH,WindSpeedGustMPH,Humidity,HourlyPrecipIn,Conditions,Clouds,dailyrainin,SoftwareType,DateUTC
2013-08-21 00:02:00,73.3,67.5,29.98,SSE,160,5.0,7.0,82,0.00,,,0.00,Wunderground v.1.15,2013-08-21 05:02:00,
2013-08-21 00:08:00,73.1,67.6,29.98,South,171,6.0,8.0,83,0.00,,,0.00,Wunderground v.1.15,2013-08-21 05:08:00,
2013-08-21 00:14:00,72.8,67.3,29.98,SSE,164,6.0,8.0,83,0.00,,,0.00,Wunderground v.1.15,2013-08-21 05:14:00,
2013-08-21 00:20:00,72.8,67.3,29.98,SSE,168,7.0,8.0,83,0.00,,,0.00,Wunderground v.1.15,2013-08-21 05:20:00,
2013-08-21 00:25:00,72.7,67.2,29.98,South,184,7.0,8.0,83,0.00,,,0.00,Wunderground v.1.15,2013-08-21 05:25:00,
2013-08-21 00:30:00,72.5,67.4,29.98,South,171,6.0,8.0,84,0.00,,,0.00,Wunderground v.1.15,2013-08-21 05:30:00,
2013-08-21 00:36:00,72.4,67.3,29.98,SSE,157,6.0,8.0,84,0.00,,,0.00,Wunderground v.1.15,2013-08-21 05:36:00,
2013-08-21 00:41:00,72.1,67.0,29.98,South,171,5.0,7.0,84,0.00,,,0.00,Wunderground v.1.15,2013-08-21 05:41:00,
2013-08-21 00:47:00,71.9,67.1,29.99,SSE,154,5.0,7.0,85,0.00,,,0.00,Wunderground v.1.15,2013-08-21 05:47:00,
2013-08-21 00:53:00,71.8,67.0,29.98,SSE,155,5.0,7.0,85,0.00,,,0.00,Wunderground v.1.15,2013-08-21 05:53:00,
2013-08-21 00:58:00,71.7,66.9,29.99,SSE,162,5.0,7.0,85,0.00,,,0.00,Wunderground v.1.15,2013-08-21 05:58:00,
2013-08-21 01:04:00,71.6,67.2,29.99,South,175,6.0,8.0,86,0.00,,,0.00,Wunderground v.1.15,2013-08-21 06:04:00,
2013-08-21 01:09:00,71.5,67.1,29.99,SSE,163,6.0,8.0,86,0.00,,,0.00,Wunderground v.1.15,2013-08-21 06:09:00,
2013-08-21 01:14:00,71.4,67.0,29.99,SSE,161,5.0,8.0,86,0.00,,,0.00,Wunderground v.1.15,2013-08-21 06:14:00,
2013-08-21 01:20:00,71.2,66.8,29.99,SSE,150,5.0,8.0,86,0.00,,,0.00,Wunderground v.1.15,2013-08-21 06:20:00,
2013-08-21 01:25:00,71.1,67.0,29.99,SSE,154,6.0,8.0,87,0.00,,,0.00,Wunderground v.1.15,2013-08-21 06:25:00,
2013-08-21 01:30:00,71.0,66.9,29.99,SSE,151,6.0,7.0,87,0.00,,,0.00,Wunderground v.1.15,2013-08-21 06:30:00,
2013-08-21 01:35:00,71.0,67.3,29.99,SSE,161,6.0,9.0,88,0.00,,,0.00,Wunderground v.1.15,2013-08-21 06:35:00,
2013-08-21 01:40:00,71.0,67.3,29.98,SSE,153,6.0,9.0,88,0.00,,,0.00,Wunderground v.1.15,2013-08-21 06:40:00,
2013-08-21 01:46:00,71.0,67.3,29.99,SSE,161,6.0,9.0,88,0.00,,,0.00,Wunderground v.1.15,2013-08-21 06:46:00,
2013-08-21 01:52:00,71.0,67.3,29.99,SSE,161,7.0,10.0,88,0.00,,,0.00,Wunderground v.1.15,2013-08-21 06:52:00,
2013-08-21 01:58:00,71.0,67.3,29.99,SSE,156,7.0,10.0,88,0.00,,,0.00,Wunderground v.1.15,2013-08-21 06:58:00,
2013-08-21 02:04:00,71.0,67.3,29.99,SSE,159,7.0,10.0,88,0.00,,,0.00,Wunderground v.1.15,2013-08-21 07:04:00,
2013-08-21 02:10:00,71.0,66.9,29.98,SSE,160,7.0,8.0,87,0.00,,,0.00,Wunderground v.1.15,2013-08-21 07:10:00,
2013-08-21 02:17:00,70.9,66.8,29.98,SSE,148,7.0,9.0,87,0.00,,,0.00,Wunderground v.1.15,2013-08-21 07:17:00,
2013-08-21 02:23:00,70.8,66.7,29.98,SSE,159,7.0,10.0,87,0.00,,,0.00,Wunderground v.1.15,2013-08-21 07:23:00,
2013-08-21 02:29:00,70.6,66.5,29.98,SSE,164,7.0,10.0,87,0.00,,,0.00,Wunderground v.1.15,2013-08-21 07:29:00,
2013-08-21 02:35:00,70.5,66.4,29.98,SSE,161,7.0,10.0,87,0.00,,,0.00,Wunderground v.1.15,2013-08-21 07:35:00,
2013-08-21 02:41:00,70.4,66.7,29.98,SSE,163,7.0,10.0,88,0.00,,,0.00,Wunderground v.1.15,2013-08-21 07:41:00,
2013-08-21 02:47:00,70.3,66.2,29.98,SSE,165,7.0,10.0,87,0.00,,,0.00,Wunderground v.1.15,2013-08-21 07:47:00,
2013-08-21 02:53:00,70.3,66.2,29.98,SSE,167,7.0,9.0,87,0.00,,,0.00,Wunderground v.1.15,2013-08-21 07:53:00,
2013-08-21 02:59:00,70.2,66.1,29.98,SSE,168,7.0,9.0,87,0.00,,,0.00,Wunderground v.1.15,2013-08-21 07:59:00,
2013-08-21 03:05:00,70.0,66.0,29.98,South,173,6.0,8.0,87,0.00,,,0.00,Wunderground v.1.15,2013-08-21 08:05:00,
2013-08-21 03:11:00,70.0,66.0,29.98,SSE,166,6.0,7.0,87,0.00,,,0.00,Wunderground v.1.15,2013-08-21 08:11:00,
2013-08-21 03:16:00,69.9,65.9,29.98,South,171,6.0,8.0,87,0.00,,,0.00,Wunderground v.1.15,2013-08-21 08:16:00,
2013-08-21 03:22:00,69.8,65.8,29.98,South,170,6.0,7.0,87,0.00,,,0.00,Wunderground v.1.15,2013-08-21 08:22:00,
2013-08-21 03:27:00,69.7,65.7,29.98,SSE,161,6.0,8.0,87,0.00,,,0.00,Wunderground v.1.15,2013-08-21 08:27:00,
2013-08-21 03:32:00,69.5,65.8,29.98,South,172,6.0,7.0,88,0.00,,,0.00,Wunderground v.1.15,2013-08-21 08:32:00,
2013-08-21 03:37:00,69.3,65.6,29.98,South,176,5.0,7.0,88,0.00,,,0.00,Wunderground v.1.15,2013-08-21 08:37:00,
2013-08-21 03:42:00,69.2,65.5,29.98,South,173,5.0,8.0,88,0.00,,,0.00,Wunderground v.1.15,2013-08-21 08:42:00,
2013-08-21 03:48:00,69.4,65.4,29.98,South,169,6.0,9.0,87,0.00,,,0.00,Wunderground v.1.15,2013-08-21 08:48:00,
2013-08-21 03:54:00,69.4,65.4,29.98,South,178,6.0,9.0,87,0.00,,,0.00,Wunderground v.1.15,2013-08-21 08:54:00,
2013-08-21 03:59:00,69.5,65.5,29.98,South,170,6.0,9.0,87,0.00,,,0.00,Wunderground v.1.15,2013-08-21 08:59:00,
2013-08-21 04:04:00,69.7,65.3,29.98,SSE,163,7.0,10.0,86,0.00,,,0.00,Wunderground v.1.15,2013-08-21 09:04:00,
2013-08-21 04:09:00,69.8,65.4,29.98,SSE,163,7.0,10.0,86,0.00,,,0.00,Wunderground v.1.15,2013-08-21 09:09:00,
2013-08-21 04:14:00,69.8,65.4,29.98,SSE,150,8.0,9.0,86,0.00,,,0.00,Wunderground v.1.15,2013-08-21 09:14:00,
2013-08-21 04:19:00,69.8,65.1,29.98,South,178,8.0,10.0,85,0.00,,,0.00,Wunderground v.1.15,2013-08-21 09:19:00,
2013-08-21 04:24:00,69.8,65.1,29.98,SSE,168,8.0,10.0,85,0.00,,,0.00,Wunderground v.1.15,2013-08-21 09:24:00,
2013-08-21 04:30:00,69.8,65.1,29.98,SSE,167,8.0,8.0,85,0.00,,,0.00,Wunderground v.1.15,2013-08-21 09:30:00,
2013-08-21 04:36:00,69.7,65.0,29.98,South,172,7.0,10.0,85,0.00,,,0.00,Wunderground v.1.15,2013-08-21 09:36:00,
2013-08-21 04:42:00,69.6,64.9,29.98,SSE,163,7.0,10.0,85,0.00,,,0.00,Wunderground v.1.15,2013-08-21 09:42:00,
2013-08-21 04:47:00,69.5,64.8,29.98,South,172,7.0,10.0,85,0.00,,,0.00,Wunderground v.1.15,2013-08-21 09:47:00,
2013-08-21 04:52:00,69.2,64.8,29.98,SSE,168,6.0,6.0,86,0.00,,,0.00,Wunderground v.1.15,2013-08-21 09:52:00,
2013-08-21 04:57:00,69.1,64.7,29.98,SSE,161,5.0,8.0,86,0.00,,,0.00,Wunderground v.1.15,2013-08-21 09:57:00,
2013-08-21 05:02:00,69.0,64.6,29.98,SSE,166,6.0,7.0,86,0.00,,,0.00,Wunderground v.1.15,2013-08-21 10:02:00,
2013-08-21 05:08:00,68.8,64.8,29.98,South,172,5.0,8.0,87,0.00,,,0.00,Wunderground v.1.15,2013-08-21 10:08:00,
2013-08-21 05:13:00,68.7,64.7,29.98,SSE,167,5.0,8.0,87,0.00,,,0.00,Wunderground v.1.15,2013-08-21 10:13:00,
2013-08-21 05:19:00,68.8,64.8,29.98,SE,140,6.0,8.0,87,0.00,,,0.00,Wunderground v.1.15,2013-08-21 10:19:00,
2013-08-21 05:24:00,68.8,64.8,29.98,South,169,6.0,9.0,87,0.00,,,0.00,Wunderground v.1.15,2013-08-21 10:24:00,
2013-08-21 05:30:00,68.7,64.7,29.98,SSE,165,6.0,6.0,87,0.00,,,0.00,Wunderground v.1.15,2013-08-21 10:30:00,
2013-08-21 05:35:00,68.7,64.3,29.98,SE,138,6.0,8.0,86,0.00,,,0.00,Wunderground v.1.15,2013-08-21 10:35:00,
2013-08-21 05:40:00,68.8,64.4,29.98,South,169,6.0,8.0,86,0.00,,,0.00,Wunderground v.1.15,2013-08-21 10:40:00,
2013-08-21 05:45:00,68.8,64.4,29.98,SSE,163,7.0,10.0,86,0.00,,,0.00,Wunderground v.1.15,2013-08-21 10:45:00,
2013-08-21 05:50:00,69.0,64.3,29.98,SSE,166,7.0,7.0,85,0.00,,,0.00,Wunderground v.1.15,2013-08-21 10:50:00,
2013-08-21 05:56:00,68.9,64.2,29.98,South,173,7.0,10.0,85,0.00,,,0.00,Wunderground v.1.15,2013-08-21 10:56:00,
2013-08-21 06:01:00,68.8,64.4,29.98,South,173,7.0,8.0,86,0.00,,,0.00,Wunderground v.1.15,2013-08-21 11:01:00,
2013-08-21 06:07:00,68.7,64.3,29.98,SSE,162,7.0,10.0,86,0.00,,,0.00,Wunderground v.1.15,2013-08-21 11:07:00,
2013-08-21 06:12:00,68.8,64.4,29.98,South,175,7.0,10.0,86,0.00,,,0.00,Wunderground v.1.15,2013-08-21 11:12:00,
2013-08-21 06:17:00,68.8,64.4,29.99,South,169,7.0,10.0,86,0.00,,,0.00,Wunderground v.1.15,2013-08-21 11:17:00,
2013-08-21 06:24:00,68.8,64.1,29.99,SSE,162,7.0,9.0,85,0.00,,,0.00,Wunderground v.1.15,2013-08-21 11:24:00,
2013-08-21 06:30:00,68.6,64.2,29.99,SSE,167,7.0,9.0,86,0.00,,,0.00,Wunderground v.1.15,2013-08-21 11:30:00,
2013-08-21 06:35:00,68.6,64.2,29.99,SSE,165,7.0,9.0,86,0.00,,,0.00,Wunderground v.1.15,2013-08-21 11:35:00,
2013-08-21 06:40:00,68.5,64.1,29.99,SSE,152,6.0,7.0,86,0.00,,,0.00,Wunderground v.1.15,2013-08-21 11:40:00,
2013-08-21 06:45:00,68.1,64.1,29.99,SSE,161,6.0,8.0,87,0.00,,,0.00,Wunderground v.1.15,2013-08-21 11:45:00,
2013-08-21 06:51:00,67.8,63.8,29.99,SSE,147,6.0,7.0,87,0.00,,,0.00,Wunderground v.1.15,2013-08-21 11:51:00,
2013-08-21 06:57:00,67.4,63.7,29.99,SE,137,6.0,7.0,88,0.00,,,0.00,Wunderground v.1.15,2013-08-21 11:57:00,
2013-08-21 07:02:00,67.2,63.5,30.00,SE,142,6.0,7.0,88,0.00,,,0.00,Wunderground v.1.15,2013-08-21 12:02:00,
2013-08-21 07:08:00,67.2,63.8,30.00,SE,144,6.0,7.0,89,0.00,,,0.00,Wunderground v.1.15,2013-08-21 12:08:00,
2013-08-21 07:13:00,67.2,63.8,30.00,SSE,150,6.0,10.0,89,0.00,,,0.00,Wunderground v.1.15,2013-08-21 12:13:00,
2013-08-21 07:19:00,67.3,63.9,30.00,SE,146,6.0,10.0,89,0.00,,,0.00,Wunderground v.1.15,2013-08-21 12:19:00,
2013-08-21 07:24:00,67.6,64.2,30.00,SSE,148,6.0,8.0,89,0.00,,,0.00,Wunderground v.1.15,2013-08-21 12:24:00,
2013-08-21 07:29:00,67.9,64.2,30.00,SSE,154,6.0,8.0,88,0.00,,,0.00,Wunderground v.1.15,2013-08-21 12:29:00,
2013-08-21 07:35:00,68.2,64.5,30.00,SSE,165,5.0,8.0,88,0.00,,,0.00,Wunderground v.1.15,2013-08-21 12:35:00,
2013-08-21 07:40:00,68.5,64.5,30.00,SSE,168,6.0,6.0,87,0.00,,,0.00,Wunderground v.1.15,2013-08-21 12:40:00,
2013-08-21 07:47:00,68.7,64.7,30.00,SSE,161,6.0,8.0,87,0.00,,,0.00,Wunderground v.1.15,2013-08-21 12:47:00,
2013-08-21 07:52:00,68.9,64.5,30.01,South,170,6.0,9.0,86,0.00,,,0.00,Wunderground v.1.15,2013-08-21 12:52:00,
2013-08-21 07:58:00,69.2,64.8,30.01,South,178,6.0,9.0,86,0.00,,,0.00,Wunderground v.1.15,2013-08-21 12:58:00,
2013-08-21 08:03:00,69.4,65.0,30.01,South,179,6.0,9.0,86,0.00,,,0.00,Wunderground v.1.15,2013-08-21 13:03:00,
2013-08-21 08:09:00,69.9,65.2,30.01,SSE,165,7.0,10.0,85,0.00,,,0.00,Wunderground v.1.15,2013-08-21 13:09:00,
2013-08-21 08:14:00,70.1,65.4,30.01,South,186,7.0,9.0,85,0.00,,,0.00,Wunderground v.1.15,2013-08-21 13:14:00,
2013-08-21 08:19:00,70.3,65.2,30.01,South,180,7.0,10.0,84,0.00,,,0.00,Wunderground v.1.15,2013-08-21 13:19:00,
2013-08-21 08:25:00,70.6,65.5,30.02,South,179,7.0,10.0,84,0.00,,,0.00,Wunderground v.1.15,2013-08-21 13:25:00,
2013-08-21 08:30:00,71.0,65.6,30.02,South,182,8.0,8.0,83,0.00,,,0.00,Wunderground v.1.15,2013-08-21 13:30:00,
2013-08-21 08:35:00,71.4,65.6,30.02,South,180,8.0,12.0,82,0.00,,,0.00,Wunderground v.1.15,2013-08-21 13:35:00,
2013-08-21 08:40:00,71.7,65.9,30.02,South,176,8.0,8.0,82,0.00,,,0.00,Wunderground v.1.15,2013-08-21 13:40:00,
2013-08-21 08:45:00,72.0,66.2,30.02,South,177,8.0,10.0,82,0.00,,,0.00,Wunderground v.1.15,2013-08-21 13:45:00,
2013-08-21 08:51:00,72.5,66.3,30.01,South,185,7.0,11.0,81,0.00,,,0.00,Wunderground v.1.15,2013-08-21 13:51:00,
2013-08-21 08:56:00,72.7,65.8,30.01,South,180,8.0,15.0,79,0.00,,,0.00,Wunderground v.1.15,2013-08-21 13:56:00,
2013-08-21 09:02:00,73.2,65.9,30.02,South,185,10.0,12.0,78,0.00,,,0.00,Wunderground v.1.15,2013-08-21 14:02:00,
2013-08-21 09:08:00,73.7,66.8,30.02,South,175,9.0,13.0,79,0.00,,,0.00,Wunderground v.1.15,2013-08-21 14:08:00,
2013-08-21 09:14:00,74.0,66.7,30.02,South,176,9.0,12.0,78,0.00,,,0.00,Wunderground v.1.15,2013-08-21 14:14:00,
2013-08-21 09:20:00,74.3,66.6,30.02,South,188,9.0,10.0,77,0.00,,,0.00,Wunderground v.1.15,2013-08-21 14:20:00,
2013-08-21 09:26:00,74.6,66.9,30.02,SSW,194,9.0,13.0,77,0.00,,,0.00,Wunderground v.1.15,2013-08-21 14:26:00,
2013-08-21 09:31:00,75.1,67.0,30.02,South,180,9.0,9.0,76,0.00,,,0.00,Wunderground v.1.15,2013-08-21 14:31:00,
2013-08-21 09:36:00,75.5,66.6,30.02,South,175,8.0,11.0,74,0.00,,,0.00,Wunderground v.1.15,2013-08-21 14:36:00,
2013-08-21 09:41:00,75.7,66.4,30.02,South,187,9.0,12.0,73,0.00,,,0.00,Wunderground v.1.15,2013-08-21 14:41:00,
2013-08-21 09:47:00,76.0,66.3,30.02,SSW,196,9.0,14.0,72,0.00,,,0.00,Wunderground v.1.15,2013-08-21 14:47:00,
2013-08-21 09:52:00,76.3,67.0,30.02,South,182,10.0,13.0,73,0.00,,,0.00,Wunderground v.1.15,2013-08-21 14:52:00,
2013-08-21 09:58:00,76.6,66.9,30.02,SSW,196,10.0,13.0,72,0.00,,,0.00,Wunderground v.1.15,2013-08-21 14:58:00,
2013-08-21 10:04:00,77.0,67.3,30.02,SSW,200,9.0,12.0,72,0.00,,,0.00,Wunderground v.1.15,2013-08-21 15:04:00,
2013-08-21 10:09:00,77.3,67.2,30.02,South,185,9.0,15.0,71,0.00,,,0.00,Wunderground v.1.15,2013-08-21 15:09:00,
2013-08-21 10:14:00,77.6,67.0,30.02,SSW,194,9.0,12.0,70,0.00,,,0.00,Wunderground v.1.15,2013-08-21 15:14:00,
2013-08-21 10:20:00,78.1,66.2,30.02,South,175,9.0,13.0,67,0.00,,,0.00,Wunderground v.1.15,2013-08-21 15:20:00,
2013-08-21 10:26:00,78.4,66.5,30.02,South,187,9.0,13.0,67,0.00,,,0.00,Wunderground v.1.15,2013-08-21 15:26:00,
2013-08-21 10:31:00,78.9,66.1,30.02,South,180,9.0,11.0,65,0.00,,,0.00,Wunderground v.1.15,2013-08-21 15:31:00,
2013-08-21 10:37:00,79.3,66.5,30.02,South,187,9.0,12.0,65,0.00,,,0.00,Wunderground v.1.15,2013-08-21 15:37:00,
2013-08-21 10:42:00,79.6,65.9,30.02,SSW,198,9.0,14.0,63,0.00,,,0.00,Wunderground v.1.15,2013-08-21 15:42:00,
2013-08-21 10:48:00,80.2,66.0,30.02,SSW,205,9.0,14.0,62,0.00,,,0.00,Wunderground v.1.15,2013-08-21 15:48:00,
2013-08-21 10:54:00,80.4,66.2,30.02,South,186,9.0,15.0,62,0.00,,,0.00,Wunderground v.1.15,2013-08-21 15:54:00,
2013-08-21 11:00:00,80.7,66.5,30.02,SSW,206,9.0,9.0,62,0.00,,,0.00,Wunderground v.1.15,2013-08-21 16:00:00,
2013-08-21 11:06:00,81.4,66.2,30.02,South,182,8.0,15.0,60,0.00,,,0.00,Wunderground v.1.15,2013-08-21 16:06:00,
2013-08-21 11:12:00,81.4,66.2,30.02,SSW,211,9.0,13.0,60,0.00,,,0.00,Wunderground v.1.15,2013-08-21 16:12:00,
2013-08-21 11:17:00,81.7,66.9,30.02,SW,219,8.0,13.0,61,0.00,,,0.00,Wunderground v.1.15,2013-08-21 16:17:00,
2013-08-21 11:22:00,82.2,66.4,30.01,SSW,194,8.0,14.0,59,0.00,,,0.00,Wunderground v.1.15,2013-08-21 16:22:00,
2013-08-21 11:27:00,82.2,66.0,30.02,SW,225,9.0,16.0,58,0.00,,,0.00,Wunderground v.1.15,2013-08-21 16:27:00,
2013-08-21 11:33:00,82.5,65.2,30.02,SSW,198,10.0,15.0,56,0.00,,,0.00,Wunderground v.1.15,2013-08-21 16:33:00,
2013-08-21 11:38:00,82.8,65.5,30.02,SSW,206,10.0,16.0,56,0.00,,,0.00,Wunderground v.1.15,2013-08-21 16:38:00,
2013-08-21 11:44:00,83.1,65.8,30.02,SW,229,10.0,16.0,56,0.00,,,0.00,Wunderground v.1.15,2013-08-21 16:44:00,
2013-08-21 11:50:00,83.7,66.3,30.02,South,184,9.0,9.0,56,0.00,,,0.00,Wunderground v.1.15,2013-08-21 16:50:00,
2013-08-21 11:56:00,84.1,64.6,30.02,SW,222,10.0,17.0,52,0.00,,,0.00,Wunderground v.1.15,2013-08-21 16:56:00,
2013-08-21 12:02:00,84.1,65.7,30.02,SW,215,11.0,15.0,54,0.00,,,0.00,Wunderground v.1.15,2013-08-21 17:02:00,
2013-08-21 12:08:00,84.5,65.5,30.01,SSW,209,10.0,16.0,53,0.00,,,0.00,Wunderground v.1.15,2013-08-21 17:08:00,
2013-08-21 12:13:00,84.4,64.9,30.01,SW,225,11.0,18.0,52,0.00,,,0.00,Wunderground v.1.15,2013-08-21 17:13:00,
2013-08-21 12:19:00,84.7,66.2,30.02,SSW,204,11.0,18.0,54,0.00,,,0.00,Wunderground v.1.15,2013-08-21 17:19:00,
2013-08-21 12:24:00,85.4,66.9,30.01,South,184,10.0,17.0,54,0.00,,,0.00,Wunderground v.1.15,2013-08-21 17:24:00,
2013-08-21 12:29:00,85.4,65.8,30.01,South,187,10.0,17.0,52,0.00,,,0.00,Wunderground v.1.15,2013-08-21 17:29:00,
2013-08-21 12:34:00,85.7,65.5,30.01,SSW,193,10.0,16.0,51,0.00,,,0.00,Wunderground v.1.15,2013-08-21 17:34:00,
2013-08-21 12:40:00,85.7,64.9,30.01,WSW,242,10.0,16.0,50,0.00,,,0.00,Wunderground v.1.15,2013-08-21 17:40:00,
2013-08-21 12:45:00,86.2,65.4,30.01,SSW,209,11.0,17.0,50,0.00,,,0.00,Wunderground v.1.15,2013-08-21 17:45:00,
2013-08-21 12:50:00,86.1,65.9,30.01,SW,217,10.0,12.0,51,0.00,,,0.00,Wunderground v.1.15,2013-08-21 17:50:00,
2013-08-21 12:55:00,86.4,65.0,30.01,SW,219,11.0,15.0,49,0.00,,,0.00,Wunderground v.1.15,2013-08-21 17:55:00,
2013-08-21 13:01:00,86.5,65.1,30.01,SSW,213,11.0,15.0,49,0.00,,,0.00,Wunderground v.1.15,2013-08-21 18:01:00,
2013-08-21 13:06:00,86.7,65.8,30.01,WSW,238,12.0,17.0,50,0.00,,,0.00,Wunderground v.1.15,2013-08-21 18:06:00,
2013-08-21 13:11:00,87.2,67.4,30.01,SW,232,11.0,14.0,52,0.00,,,0.00,Wunderground v.1.15,2013-08-21 18:11:00,
2013-08-21 13:17:00,87.5,65.4,30.00,SSW,198,10.0,17.0,48,0.00,,,0.00,Wunderground v.1.15,2013-08-21 18:17:00,
2013-08-21 13:22:00,87.5,65.4,30.00,SSW,198,12.0,17.0,48,0.00,,,0.00,Wunderground v.1.15,2013-08-21 18:22:00,
2013-08-21 13:27:00,87.6,64.9,30.00,SW,219,12.0,18.0,47,0.00,,,0.00,Wunderground v.1.15,2013-08-21 18:27:00,
2013-08-21 13:33:00,88.0,65.8,30.00,SSE,168,11.0,16.0,48,0.00,,,0.00,Wunderground v.1.15,2013-08-21 18:33:00,
2013-08-21 13:38:00,88.3,66.7,30.00,South,177,11.0,18.0,49,0.00,,,0.00,Wunderground v.1.15,2013-08-21 18:38:00,
2013-08-21 13:44:00,88.3,64.3,30.00,SSW,195,11.0,19.0,45,0.00,,,0.00,Wunderground v.1.15,2013-08-21 18:44:00,
2013-08-21 13:49:00,88.4,64.4,30.00,SSW,198,12.0,19.0,45,0.00,,,0.00,Wunderground v.1.15,2013-08-21 18:49:00,
2013-08-21 13:55:00,88.6,65.2,30.00,SSW,212,11.0,20.0,46,0.00,,,0.00,Wunderground v.1.15,2013-08-21 18:55:00,
2013-08-21 14:01:00,88.9,63.5,30.00,SSW,200,11.0,12.0,43,0.00,,,0.00,Wunderground v.1.15,2013-08-21 19:01:00,
2013-08-21 14:06:00,89.3,64.5,30.00,South,190,10.0,16.0,44,0.00,,,0.00,Wunderground v.1.15,2013-08-21 19:06:00,
2013-08-21 14:12:00,89.5,67.2,30.00,WSW,254,10.0,15.0,48,0.00,,,0.00,Wunderground v.1.15,2013-08-21 19:12:00,
2013-08-21 14:17:00,89.6,65.4,30.00,SW,221,11.0,18.0,45,0.00,,,0.00,Wunderground v.1.15,2013-08-21 19:17:00,
2013-08-21 14:23:00,89.7,66.8,30.00,SSW,207,10.0,14.0,47,0.00,,,0.00,Wunderground v.1.15,2013-08-21 19:23:00,
2013-08-21 14:28:00,89.9,64.4,30.00,South,189,10.0,16.0,43,0.00,,,0.00,Wunderground v.1.15,2013-08-21 19:28:00,
2013-08-21 14:33:00,89.8,65.0,29.99,SW,218,12.0,15.0,44,0.00,,,0.00,Wunderground v.1.15,2013-08-21 19:33:00,
2013-08-21 14:39:00,90.0,65.2,29.99,SW,223,12.0,19.0,44,0.00,,,0.00,Wunderground v.1.15,2013-08-21 19:39:00,
2013-08-21 14:44:00,90.4,64.9,29.99,SW,214,12.0,17.0,43,0.00,,,0.00,Wunderground v.1.15,2013-08-21 19:44:00,
2013-08-21 14:49:00,90.3,64.8,29.99,SW,230,12.0,18.0,43,0.00,,,0.00,Wunderground v.1.15,2013-08-21 19:49:00,
2013-08-21 14:54:00,90.5,63.6,29.99,WSW,244,12.0,17.0,41,0.00,,,0.00,Wunderground v.1.15,2013-08-21 19:54:00,
2013-08-21 15:00:00,90.7,64.5,29.99,SSW,205,12.0,20.0,42,0.00,,,0.00,Wunderground v.1.15,2013-08-21 20:00:00,
2013-08-21 15:05:00,91.0,65.4,29.99,SW,221,12.0,20.0,43,0.00,,,0.00,Wunderground v.1.15,2013-08-21 20:05:00,
2013-08-21 15:11:00,91.0,64.0,29.98,South,182,10.0,18.0,41,0.00,,,0.00,Wunderground v.1.15,2013-08-21 20:11:00,
2013-08-21 15:16:00,91.1,64.8,29.99,SSW,207,12.0,19.0,42,0.00,,,0.00,Wunderground v.1.15,2013-08-21 20:16:00,
2013-08-21 15:22:00,91.5,64.5,29.98,South,178,11.0,17.0,41,0.00,,,0.00,Wunderground v.1.15,2013-08-21 20:22:00,
2013-08-21 15:30:00,91.2,64.9,29.98,South,184,12.0,12.0,42,0.00,,,0.00,Wunderground v.1.15,2013-08-21 20:30:00,
2013-08-21 15:35:00,91.2,66.2,29.98,South,177,11.0,18.0,44,0.00,,,0.00,Wunderground v.1.15,2013-08-21 20:35:00,
2013-08-21 15:41:00,91.2,66.9,29.98,South,184,11.0,13.0,45,0.00,,,0.00,Wunderground v.1.15,2013-08-21 20:41:00,
2013-08-21 15:47:00,91.4,65.1,29.98,SSW,195,11.0,18.0,42,0.00,,,0.00,Wunderground v.1.15,2013-08-21 20:47:00,
2013-08-21 15:53:00,91.4,64.4,29.97,South,175,13.0,18.0,41,0.00,,,0.00,Wunderground v.1.15,2013-08-21 20:53:00,
2013-08-21 15:59:00,91.3,64.3,29.97,South,186,14.0,22.0,41,0.00,,,0.00,Wunderground v.1.15,2013-08-21 20:59:00,
2013-08-21 16:04:00,91.2,64.2,29.97,South,174,14.0,21.0,41,0.00,,,0.00,Wunderground v.1.15,2013-08-21 21:04:00,
2013-08-21 16:10:00,91.3,65.7,29.97,South,186,13.0,18.0,43,0.00,,,0.00,Wunderground v.1.15,2013-08-21 21:10:00,
2013-08-21 16:15:00,91.3,65.0,29.97,South,175,13.0,19.0,42,0.00,,,0.00,Wunderground v.1.15,2013-08-21 21:15:00,
2013-08-21 16:20:00,91.3,64.3,29.97,South,186,14.0,21.0,41,0.00,,,0.00,Wunderground v.1.15,2013-08-21 21:20:00,
2013-08-21 16:26:00,91.2,64.9,29.97,SSW,192,15.0,23.0,42,0.00,,,0.00,Wunderground v.1.15,2013-08-21 21:26:00,
2013-08-21 16:31:00,91.3,64.3,29.97,SSW,201,13.0,15.0,41,0.00,,,0.00,Wunderground v.1.15,2013-08-21 21:31:00,
2013-08-21 16:36:00,91.2,63.5,29.97,SSE,166,12.0,19.0,40,0.00,,,0.00,Wunderground v.1.15,2013-08-21 21:36:00,
2013-08-21 16:41:00,91.3,64.3,29.96,SSW,192,13.0,16.0,41,0.00,,,0.00,Wunderground v.1.15,2013-08-21 21:41:00,
2013-08-21 16:47:00,91.4,63.7,29.96,South,181,12.0,17.0,40,0.00,,,0.00,Wunderground v.1.15,2013-08-21 21:47:00,
2013-08-21 16:53:00,91.4,64.4,29.96,South,188,11.0,18.0,41,0.00,,,0.00,Wunderground v.1.15,2013-08-21 21:53:00,
2013-08-21 16:58:00,91.3,63.6,29.96,South,180,12.0,19.0,40,0.00,,,0.00,Wunderground v.1.15,2013-08-21 21:58:00,
2013-08-21 17:04:00,91.3,65.7,29.96,South,175,12.0,16.0,43,0.00,,,0.00,Wunderground v.1.15,2013-08-21 22:04:00,
2013-08-21 17:09:00,91.3,64.3,29.96,SSW,201,10.0,17.0,41,0.00,,,0.00,Wunderground v.1.15,2013-08-21 22:09:00,
2013-08-21 17:15:00,91.2,64.9,29.96,SSW,203,11.0,17.0,42,0.00,,,0.00,Wunderground v.1.15,2013-08-21 22:15:00,
2013-08-21 17:21:00,91.1,63.4,29.96,South,185,11.0,16.0,40,0.00,,,0.00,Wunderground v.1.15,2013-08-21 22:21:00,
2013-08-21 17:26:00,91.1,63.4,29.96,South,175,12.0,18.0,40,0.00,,,0.00,Wunderground v.1.15,2013-08-21 22:26:00,
2013-08-21 17:31:00,91.0,64.7,29.96,South,184,11.0,14.0,42,0.00,,,0.00,Wunderground v.1.15,2013-08-21 22:31:00,
2013-08-21 17:37:00,91.0,64.7,29.96,South,169,10.0,16.0,42,0.00,,,0.00,Wunderground v.1.15,2013-08-21 22:37:00,
2013-08-21 17:42:00,90.8,63.1,29.96,South,179,11.0,17.0,40,0.00,,,0.00,Wunderground v.1.15,2013-08-21 22:42:00,
2013-08-21 17:48:00,90.6,63.7,29.96,SSW,196,11.0,17.0,41,0.00,,,0.00,Wunderground v.1.15,2013-08-21 22:48:00,
2013-08-21 17:53:00,90.5,62.9,29.96,South,186,12.0,17.0,40,0.00,,,0.00,Wunderground v.1.15,2013-08-21 22:53:00,
2013-08-21 17:58:00,90.4,63.5,29.96,SSE,163,13.0,18.0,41,0.00,,,0.00,Wunderground v.1.15,2013-08-21 22:58:00,
2013-08-21 18:03:00,90.1,63.9,29.95,South,171,13.0,20.0,42,0.00,,,0.00,Wunderground v.1.15,2013-08-21 23:03:00,
2013-08-21 18:09:00,90.2,64.0,29.96,SSW,196,11.0,20.0,42,0.00,,,0.00,Wunderground v.1.15,2013-08-21 23:09:00,
2013-08-21 18:14:00,89.9,63.7,29.95,South,180,10.0,16.0,42,0.00,,,0.00,Wunderground v.1.15,2013-08-21 23:14:00,
2013-08-21 18:19:00,89.7,63.6,29.95,South,189,11.0,16.0,42,0.00,,,0.00,Wunderground v.1.15,2013-08-21 23:19:00,
2013-08-21 18:24:00,89.5,63.4,29.95,South,182,11.0,15.0,42,0.00,,,0.00,Wunderground v.1.15,2013-08-21 23:24:00,
2013-08-21 18:30:00,89.5,64.0,29.95,South,175,11.0,14.0,43,0.00,,,0.00,Wunderground v.1.15,2013-08-21 23:30:00,
2013-08-21 18:35:00,89.3,64.5,29.95,SSE,165,11.0,16.0,44,0.00,,,0.00,Wunderground v.1.15,2013-08-21 23:35:00,
2013-08-21 18:40:00,89.2,65.1,29.95,SSE,166,10.0,10.0,45,0.00,,,0.00,Wunderground v.1.15,2013-08-21 23:40:00,
2013-08-21 18:45:00,89.0,64.3,29.95,South,173,9.0,15.0,44,0.00,,,0.00,Wunderground v.1.15,2013-08-21 23:45:00,
2013-08-21 18:51:00,88.7,64.6,29.95,South,180,9.0,9.0,45,0.00,,,0.00,Wunderground v.1.15,2013-08-21 23:51:00,
2013-08-21 18:56:00,88.4,64.4,29.96,SSE,163,8.0,13.0,45,0.00,,,0.00,Wunderground v.1.15,2013-08-21 23:56:00,
2013-08-21 19:01:00,88.2,64.8,29.95,South,171,9.0,9.0,46,0.00,,,0.00,Wunderground v.1.15,2013-08-22 00:01:00,
2013-08-21 19:07:00,87.7,65.0,29.95,South,177,8.0,10.0,47,0.00,,,0.00,Wunderground v.1.15,2013-08-22 00:07:00,
2013-08-21 19:12:00,87.4,64.7,29.95,South,186,7.0,10.0,47,0.00,,,0.00,Wunderground v.1.15,2013-08-22 00:12:00,
2013-08-21 19:18:00,87.0,64.9,29.95,South,177,8.0,11.0,48,0.00,,,0.00,Wunderground v.1.15,2013-08-22 00:18:00,
2013-08-21 19:23:00,86.6,64.6,29.95,South,171,8.0,12.0,48,0.00,,,0.00,Wunderground v.1.15,2013-08-22 00:23:00,
2013-08-21 19:28:00,86.5,64.5,29.95,SSE,168,9.0,13.0,48,0.00,,,0.00,Wunderground v.1.15,2013-08-22 00:28:00,
2013-08-21 19:33:00,86.1,64.1,29.95,SSE,167,9.0,12.0,48,0.00,,,0.00,Wunderground v.1.15,2013-08-22 00:33:00,
2013-08-21 19:38:00,85.7,64.3,29.95,SSE,168,8.0,12.0,49,0.00,,,0.00,Wunderground v.1.15,2013-08-22 00:38:00,
2013-08-21 19:44:00,85.3,65.1,29.95,South,172,8.0,10.0,51,0.00,,,0.00,Wunderground v.1.15,2013-08-22 00:44:00,
2013-08-21 19:49:00,85.0,64.3,29.95,South,178,9.0,12.0,50,0.00,,,0.00,Wunderground v.1.15,2013-08-22 00:49:00,
2013-08-21 19:54:00,84.7,64.6,29.95,South,177,9.0,12.0,51,0.00,,,0.00,Wunderground v.1.15,2013-08-22 00:54:00,
2013-08-21 19:59:00,84.2,64.7,29.95,South,170,9.0,13.0,52,0.00,,,0.00,Wunderground v.1.15,2013-08-22 00:59:00,
2013-08-21 20:05:00,83.6,64.1,29.95,SSE,165,8.0,10.0,52,0.00,,,0.00,Wunderground v.1.15,2013-08-22 01:05:00,
2013-08-21 20:11:00,83.2,64.3,29.95,South,172,9.0,9.0,53,0.00,,,0.00,Wunderground v.1.15,2013-08-22 01:11:00,
2013-08-21 20:16:00,82.9,64.0,29.95,SSE,154,8.0,11.0,53,0.00,,,0.00,Wunderground v.1.15,2013-08-22 01:16:00,
2013-08-21 20:21:00,82.5,63.6,29.96,SSE,166,9.0,11.0,53,0.00,,,0.00,Wunderground v.1.15,2013-08-22 01:21:00,
2013-08-21 20:26:00,82.3,64.0,29.96,South,170,9.0,11.0,54,0.00,,,0.00,Wunderground v.1.15,2013-08-22 01:26:00,
2013-08-21 20:32:00,81.9,64.1,29.96,SSE,157,8.0,11.0,55,0.00,,,0.00,Wunderground v.1.15,2013-08-22 01:32:00,
2013-08-21 20:37:00,81.3,64.6,29.96,SSE,156,8.0,11.0,57,0.00,,,0.00,Wunderground v.1.15,2013-08-22 01:37:00,
2013-08-21 20:42:00,80.5,64.9,29.96,SSE,147,7.0,7.0,59,0.00,,,0.00,Wunderground v.1.15,2013-08-22 01:42:00,
2013-08-21 20:47:00,79.6,65.0,29.96,SSE,161,6.0,9.0,61,0.00,,,0.00,Wunderground v.1.15,2013-08-22 01:47:00,
2013-08-21 20:53:00,79.2,65.1,29.96,SSE,162,7.0,9.0,62,0.00,,,0.00,Wunderground v.1.15,2013-08-22 01:53:00,
2013-08-21 20:59:00,78.9,65.2,29.96,SSE,165,7.0,10.0,63,0.00,,,0.00,Wunderground v.1.15,2013-08-22 01:59:00,
2013-08-21 21:04:00,78.3,65.1,29.97,SSE,167,6.0,7.0,64,0.00,,,0.00,Wunderground v.1.15,2013-08-22 02:04:00,
2013-08-21 21:10:00,77.8,65.1,29.97,SSE,162,5.0,7.0,65,0.00,,,0.00,Wunderground v.1.15,2013-08-22 02:10:00,
2013-08-21 21:16:00,77.4,65.6,29.97,SSE,157,6.0,8.0,67,0.00,,,0.00,Wunderground v.1.15,2013-08-22 02:16:00,
2013-08-21 21:21:00,76.9,65.5,29.97,SSE,167,6.0,7.0,68,0.00,,,0.00,Wunderground v.1.15,2013-08-22 02:21:00,
2013-08-21 21:26:00,76.8,65.9,29.97,South,180,6.0,9.0,69,0.00,,,0.00,Wunderground v.1.15,2013-08-22 02:26:00,
2013-08-21 21:31:00,76.8,65.9,29.97,SSE,160,7.0,9.0,69,0.00,,,0.00,Wunderground v.1.15,2013-08-22 02:31:00,
2013-08-21 21:37:00,76.7,65.8,29.97,South,179,7.0,10.0,69,0.00,,,0.00,Wunderground v.1.15,2013-08-22 02:37:00,
2013-08-21 21:42:00,76.9,66.0,29.98,South,169,8.0,10.0,69,0.00,,,0.00,Wunderground v.1.15,2013-08-22 02:42:00,
2013-08-21 21:48:00,76.9,65.5,29.98,South,184,8.0,11.0,68,0.00,,,0.00,Wunderground v.1.15,2013-08-22 02:48:00,
2013-08-21 21:53:00,77.1,65.7,29.98,SSE,162,8.0,9.0,68,0.00,,,0.00,Wunderground v.1.15,2013-08-22 02:53:00,
2013-08-21 21:58:00,77.1,65.7,29.98,SSE,164,8.0,12.0,68,0.00,,,0.00,Wunderground v.1.15,2013-08-22 02:58:00,
2013-08-21 22:03:00,77.1,65.7,29.98,South,169,9.0,11.0,68,0.00,,,0.00,Wunderground v.1.15,2013-08-22 03:03:00,
2013-08-21 22:08:00,76.9,65.5,29.98,SSE,165,9.0,11.0,68,0.00,,,0.00,Wunderground v.1.15,2013-08-22 03:08:00,
2013-08-21 22:13:00,77.0,65.6,29.98,South,173,8.0,12.0,68,0.00,,,0.00,Wunderground v.1.15,2013-08-22 03:13:00,
2013-08-21 22:18:00,76.9,65.5,29.98,South,170,9.0,12.0,68,0.00,,,0.00,Wunderground v.1.15,2013-08-22 03:18:00,
2013-08-21 22:23:00,76.7,65.8,29.98,South,171,8.0,11.0,69,0.00,,,0.00,Wunderground v.1.15,2013-08-22 03:23:00,
2013-08-21 22:28:00,76.5,66.0,29.98,SSE,168,8.0,11.0,70,0.00,,,0.00,Wunderground v.1.15,2013-08-22 03:28:00,
2013-08-21 22:33:00,76.2,65.7,29.98,SSE,161,7.0,9.0,70,0.00,,,0.00,Wunderground v.1.15,2013-08-22 03:33:00,
2013-08-21 22:39:00,75.9,65.8,29.98,SSE,167,8.0,11.0,71,0.00,,,0.00,Wunderground v.1.15,2013-08-22 03:39:00,
2013-08-21 22:44:00,75.7,65.6,29.98,South,169,8.0,11.0,71,0.00,,,0.00,Wunderground v.1.15,2013-08-22 03:44:00,
2013-08-21 22:49:00,75.5,65.8,29.98,South,175,8.0,11.0,72,0.00,,,0.00,Wunderground v.1.15,2013-08-22 03:49:00,
2013-08-21 22:54:00,75.5,65.8,29.98,SSE,163,8.0,11.0,72,0.00,,,0.00,Wunderground v.1.15,2013-08-22 03:54:00,
2013-08-21 23:00:00,75.5,66.2,29.99,South,169,8.0,8.0,73,0.00,,,0.00,Wunderground v.1.15,2013-08-22 04:00:00,
2013-08-21 23:01:00,75.4,66.1,29.99,South,175,8.0,8.0,73,0.00,,,0.00,Wunderground v.1.15,2013-08-22 04:01:00,
2013-08-21 23:02:00,75.3,66.0,29.99,South,178,8.0,10.0,73,0.00,,,0.00,Wunderground v.1.15,2013-08-22 04:02:00,
2013-08-21 23:06:00,75.2,65.9,29.98,South,172,8.0,11.0,73,0.00,,,0.00,Wunderground v.1.15,2013-08-22 04:06:00,
2013-08-21 23:07:00,75.1,65.9,29.99,SSE,168,7.0,11.0,73,0.00,,,0.00,Wunderground v.1.15,2013-08-22 04:07:00,
2013-08-21 23:12:00,75.1,65.9,29.98,South,180,7.0,9.0,73,0.00,,,0.00,Wunderground v.1.15,2013-08-22 04:12:00,
2013-08-21 23:18:00,75.1,66.2,29.99,South,188,7.0,10.0,74,0.00,,,0.00,Wunderground v.1.15,2013-08-22 04:18:00,
2013-08-21 23:23:00,75.0,66.1,29.99,South,172,7.0,10.0,74,0.00,,,0.00,Wunderground v.1.15,2013-08-22 04:23:00,
2013-08-21 23:29:00,74.9,66.1,29.99,South,184,8.0,12.0,74,0.00,,,0.00,Wunderground v.1.15,2013-08-22 04:29:00,
2013-08-21 23:34:00,75.0,66.1,29.98,South,182,9.0,12.0,74,0.00,,,0.00,Wunderground v.1.15,2013-08-22 04:34:00,
2013-08-21 23:39:00,75.3,66.0,29.98,South,182,10.0,15.0,73,0.00,,,0.00,Wunderground v.1.15,2013-08-22 04:39:00,
2013-08-21 23:44:00,75.4,66.1,29.98,SSW,194,10.0,16.0,73,0.00,,,0.00,Wunderground v.1.15,2013-08-22 04:44:00,
2013-08-21 23:50:00,75.4,66.1,29.98,South,171,10.0,12.0,73,0.00,,,0.00,Wunderground v.1.15,2013-08-22 04:50:00,
2013-08-21 23:56:00,75.3,66.4,29.98,SSW,192,10.0,14.0,74,0.00,,,0.00,Wunderground v.1.15,2013-08-22 04:56:00,